Time,TemperatureF,DewpointF,PressureIn,WindDirection,WindDirectionDegrees,WindSpeedMPH,WindSpeedGustMPH,Humidity,HourlyPrecipIn,Conditions,Clouds,dailyrainin,SoftwareType,DateUTC
2013-08-02 00:00:00,61.4,57.2,29.99,SE,135,0.6,0.0,86,0.00,,BKN300,0.00,VWS V13.01,2013-08-01 14:00:00,
2013-08-02 00:15:00,60.9,57.0,29.99,SE,135,0.6,0.0,87,0.00,,BKN300,0.00,VWS V13.01,2013-08-01 14:15:00,
2013-08-02 00:30:00,60.5,56.6,29.99,SE,135,0.6,0.0,87,0.00,,BKN300,0.00,VWS V13.01,2013-08-01 14:30:00,
2013-08-02 00:45:00,60.0,56.1,29.99,SE,135,0.6,0.0,87,0.00,,BKN300,0.00,VWS V13.01,2013-08-01 14:45:00,
2013-08-02 01:00:00,59.5,55.6,29.99,SE,135,0.6,0.0,87,0.00,,BKN300,0.00,VWS V13.01,2013-08-01 15:00:00,
2013-08-02 01:15:00,59.3,55.1,29.99,SE,135,0.6,0.0,86,0.00,,BKN300,0.00,VWS V13.01,2013-08-01 15:15:00,
2013-08-02 01:30:00,59.0,54.8,29.98,SE,135,0.6,0.0,86,0.00,,BKN300,0.00,VWS V13.01,2013-08-01 15:30:00,
2013-08-02 01:45:00,58.9,54.7,29.98,SE,135,0.6,0.0,86,0.00,,BKN300,0.00,VWS V13.01,2013-08-01 15:45:00,
2013-08-02 02:00:00,58.7,54.8,29.98,SE,135,0.6,0.0,87,0.00,,BKN300,0.00,VWS V13.01,2013-08-01 16:00:00,
2013-08-02 02:15:00,59.0,55.1,29.97,SE,135,0.6,0.0,87,0.00,,BKN300,0.00,VWS V13.01,2013-08-01 16:15:00,
2013-08-02 02:30:00,59.2,55.3,29.97,SE,135,0.6,0.0,87,0.00,,BKN300,0.00,VWS V13.01,2013-08-01 16:30:00,
2013-08-02 02:45:00,59.2,55.3,29.97,SE,135,0.6,0.0,87,0.00,,BKN300,0.00,VWS V13.01,2013-08-01 16:45:00,
2013-08-02 03:00:00,59.5,55.3,29.96,SE,135,0.6,0.0,86,0.00,,BKN300,0.00,VWS V13.01,2013-08-01 17:00:00,
2013-08-02 03:15:00,60.0,55.5,29.96,SE,135,0.6,0.0,85,0.00,,BKN300,0.00,VWS V13.01,2013-08-01 17:15:00,
2013-08-02 03:30:00,60.2,55.7,29.96,SE,135,0.6,2.5,85,0.00,,BKN300,0.00,VWS V13.01,2013-08-01 17:30:00,
2013-08-02 03:45:00,60.6,55.8,29.96,SE,135,0.6,3.8,84,0.00,,BKN300,0.00,VWS V13.01,2013-08-01 17:45:00,
2013-08-02 04:00:00,60.8,55.9,29.96,SE,135,0.6,1.3,84,0.00,,BKN300,0.00,VWS V13.01,2013-08-01 18:00:00,
2013-08-02 04:15:00,60.4,55.9,29.96,South,180,0.6,2.5,85,0.00,,BKN300,0.00,VWS V13.01,2013-08-01 18:15:00,
2013-08-02 04:30:00,60.0,55.8,29.96,South,180,0.6,0.0,86,0.00,,BKN300,0.00,VWS V13.01,2013-08-01 18:30:00,
2013-08-02 04:45:00,60.7,55.8,29.96,South,180,1.9,5.0,84,0.00,,BKN300,0.00,VWS V13.01,2013-08-01 18:45:00,
2013-08-02 05:00:00,61.8,55.9,29.96,South,180,3.1,6.2,81,0.00,,BKN300,0.00,VWS V13.01,2013-08-01 19:00:00,
2013-08-02 05:15:00,62.0,56.1,29.96,SSW,202,4.4,8.7,81,0.00,,BKN300,0.00,VWS V13.01,2013-08-01 19:15:00,
2013-08-02 05:30:00,62.2,56.3,29.96,SSW,202,4.4,7.5,81,0.00,,BKN300,0.00,VWS V13.01,2013-08-01 19:30:00,
2013-08-02 05:45:00,62.4,56.5,29.97,South,180,3.1,8.7,81,0.00,,BKN300,0.00,VWS V13.01,2013-08-01 19:45:00,
2013-08-02 06:00:00,62.2,56.3,29.97,South,180,3.1,7.5,81,0.00,,BKN300,0.00,VWS V13.01,2013-08-01 20:00:00,
2013-08-02 06:15:00,62.1,56.2,29.97,South,180,1.9,6.2,81,0.00,,BKN300,0.00,VWS V13.01,2013-08-01 20:15:00,
2013-08-02 06:30:00,61.3,56.1,29.98,SSE,158,1.9,3.8,83,0.00,,BKN300,0.00,VWS V13.01,2013-08-01 20:30:00,
2013-08-02 06:45:00,60.6,55.1,29.98,South,180,1.9,10.0,82,0.00,,BKN300,0.00,VWS V13.01,2013-08-01 20:45:00,
2013-08-02 07:00:00,61.1,55.2,29.99,South,180,1.9,6.2,81,0.00,,BKN300,0.00,VWS V13.01,2013-08-01 21:00:00,
2013-08-02 07:15:00,61.2,55.7,29.99,SSE,158,1.9,6.2,82,0.00,,BKN300,0.00,VWS V13.01,2013-08-01 21:15:00,
2013-08-02 07:30:00,62.4,55.5,29.99,South,180,3.1,7.5,78,0.00,,BKN300,0.00,VWS V13.01,2013-08-01 21:30:00,
2013-08-02 07:45:00,63.9,56.2,29.99,SSE,158,1.9,6.2,76,0.00,,BKN300,0.00,VWS V13.01,2013-08-01 21:45:00,
2013-08-02 08:00:00,65.1,56.2,29.99,South,180,3.1,7.5,73,0.00,,BKN300,0.00,VWS V13.01,2013-08-01 22:00:00,
2013-08-02 08:15:00,66.3,56.6,30.00,South,180,3.1,6.2,71,0.00,,BKN300,0.00,VWS V13.01,2013-08-01 22:15:00,
2013-08-02 08:30:00,67.8,57.3,30.00,South,180,1.9,3.8,69,0.00,,BKN300,0.00,VWS V13.01,2013-08-01 22:30:00,
2013-08-02 08:45:00,69.3,57.9,30.00,South,180,1.9,5.0,67,0.00,,BKN300,0.00,VWS V13.01,2013-08-01 22:45:00,
2013-08-02 09:00:00,70.6,58.3,30.00,South,180,3.1,7.5,65,0.00,,BKN300,0.00,VWS V13.01,2013-08-01 23:00:00,
2013-08-02 09:18:00,71.7,58.0,30.01,South,180,1.9,5.0,62,0.00,,BKN300,0.00,VWS V13.01,2013-08-01 23:18:00,
2013-08-02 09:30:00,72.9,58.7,30.01,SW,225,3.1,7.5,61,0.00,,BKN300,0.00,VWS V13.01,2013-08-01 23:30:00,
2013-08-02 09:45:00,73.9,58.7,30.00,South,180,1.9,5.0,59,0.00,,BKN300,0.00,VWS V13.01,2013-08-01 23:45:00,
2013-08-02 10:00:00,75.3,60.0,30.00,SE,135,1.9,6.2,59,0.00,,BKN300,0.00,VWS V13.01,2013-08-02 00:00:00,
2013-08-02 10:15:00,76.6,58.7,30.00,SE,135,1.9,7.5,54,0.00,,BKN300,0.00,VWS V13.01,2013-08-02 00:15:00,
2013-08-02 10:30:00,76.8,58.9,30.00,SE,135,4.4,7.5,54,0.00,,BKN300,0.00,VWS V13.01,2013-08-02 00:30:00,
2013-08-02 10:45:00,77.1,59.7,29.99,SE,135,3.1,7.5,55,0.00,,BKN300,0.00,VWS V13.01,2013-08-02 00:45:00,
2013-08-02 11:00:00,77.9,61.0,29.99,SE,135,3.1,6.2,56,0.00,,BKN300,0.00,VWS V13.01,2013-08-02 01:00:00,
2013-08-02 11:15:00,77.7,61.3,29.98,SE,135,3.1,8.7,57,0.00,,BKN300,0.00,VWS V13.01,2013-08-02 01:15:00,
2013-08-02 11:30:00,78.0,61.0,29.98,SE,135,4.4,17.5,56,0.00,,BKN300,0.00,VWS V13.01,2013-08-02 01:30:00,
2013-08-02 11:45:00,77.0,61.6,29.98,East,90,6.9,15.0,59,0.00,,BKN300,0.00,VWS V13.01,2013-08-02 01:45:00,
2013-08-02 12:00:00,77.1,61.2,29.97,East,90,5.6,12.5,58,0.00,,BKN300,0.00,VWS V13.01,2013-08-02 02:00:00,
2013-08-02 12:15:00,76.1,62.6,29.97,East,90,6.9,13.7,63,0.00,,BKN300,0.00,VWS V13.01,2013-08-02 02:15:00,
2013-08-02 12:30:00,75.7,63.5,29.97,East,90,5.6,15.0,66,0.00,,BKN300,0.00,VWS V13.01,2013-08-02 02:30:00,
2013-08-02 12:45:00,75.7,65.2,29.96,East,90,8.1,17.5,70,0.00,,BKN300,0.00,VWS V13.01,2013-08-02 02:45:00,
2013-08-02 13:00:00,75.8,65.3,29.96,East,90,6.9,15.0,70,0.00,,BKN300,0.00,VWS V13.01,2013-08-02 03:00:00,
2013-08-02 13:15:00,76.2,65.3,29.95,ESE,112,6.9,16.3,69,0.00,,BKN300,0.00,VWS V13.01,2013-08-02 03:15:00,
2013-08-02 13:30:00,76.2,65.7,29.95,ESE,112,5.6,15.0,70,0.00,,BKN300,0.00,VWS V13.01,2013-08-02 03:30:00,
2013-08-02 13:45:00,76.0,65.5,29.94,ESE,112,6.9,15.0,70,0.00,,BKN300,0.00,VWS V13.01,2013-08-02 03:45:00,
2013-08-02 14:00:00,76.2,65.7,29.93,ESE,112,6.9,18.7,70,0.00,,BKN300,0.00,VWS V13.01,2013-08-02 04:00:00,
2013-08-02 14:15:00,76.5,66.0,29.93,SE,135,5.6,16.3,70,0.00,,BKN300,0.00,VWS V13.01,2013-08-02 04:15:00,
2013-08-02 14:30:00,76.3,65.4,29.92,ESE,112,5.6,12.5,69,0.00,,BKN300,0.00,VWS V13.01,2013-08-02 04:30:00,
2013-08-02 14:45:00,75.9,64.2,29.92,East,90,6.9,16.3,67,0.00,,BKN300,0.00,VWS V13.01,2013-08-02 04:45:00,
2013-08-02 15:00:00,75.7,65.2,29.92,East,90,6.9,16.3,70,0.00,,BKN300,0.00,VWS V13.01,2013-08-02 05:00:00,
2013-08-02 15:15:00,75.5,65.4,29.92,SE,135,5.6,12.5,71,0.00,,BKN300,0.00,VWS V13.01,2013-08-02 05:15:00,
2013-08-02 15:30:00,75.8,64.9,29.92,East,90,5.6,12.5,69,0.00,,BKN300,0.00,VWS V13.01,2013-08-02 05:30:00,
2013-08-02 15:45:00,75.8,64.9,29.91,ESE,112,5.6,12.5,69,0.00,,BKN300,0.00,VWS V13.01,2013-08-02 05:45:00,
2013-08-02 16:00:00,75.8,65.3,29.92,SE,135,4.4,12.5,70,0.00,,BKN300,0.00,VWS V13.01,2013-08-02 06:00:00,
2013-08-02 16:15:00,76.0,63.8,29.92,SE,135,4.4,8.7,66,0.00,,BKN300,0.00,VWS V13.01,2013-08-02 06:15:00,
2013-08-02 16:30:00,76.1,64.8,29.92,SE,135,4.4,11.3,68,0.00,,BKN300,0.00,VWS V13.01,2013-08-02 06:30:00,
2013-08-02 16:45:00,75.1,63.4,29.92,SE,135,4.4,8.7,67,0.00,,BKN300,0.00,VWS V13.01,2013-08-02 06:45:00,
2013-08-02 17:00:00,74.9,63.2,29.92,SE,135,4.4,11.3,67,0.00,,BKN300,0.00,VWS V13.01,2013-08-02 07:00:00,
2013-08-02 17:15:00,74.9,64.1,29.93,SE,135,4.4,11.3,69,0.00,,BKN300,0.00,VWS V13.01,2013-08-02 07:15:00,
2013-08-02 17:30:00,74.6,64.6,29.93,SE,135,3.1,10.0,71,0.00,,BKN300,0.00,VWS V13.01,2013-08-02 07:30:00,
2013-08-02 17:45:00,73.8,65.4,29.94,SE,135,3.1,8.7,75,0.00,,BKN300,0.00,VWS V13.01,2013-08-02 07:45:00,
2013-08-02 18:00:00,72.7,65.1,29.95,SE,135,1.9,5.0,77,0.00,,BKN300,0.00,VWS V13.01,2013-08-02 08:00:00,
2013-08-02 18:15:00,71.8,65.3,29.95,SE,135,0.6,6.2,80,0.00,,BKN300,0.00,VWS V13.01,2013-08-02 08:15:00,
2013-08-02 18:30:00,71.1,65.3,29.96,SE,135,1.9,6.2,82,0.00,,BKN300,0.00,VWS V13.01,2013-08-02 08:30:00,
2013-08-02 18:45:00,70.6,64.1,29.96,SE,135,3.1,8.7,80,0.00,,BKN300,0.00,VWS V13.01,2013-08-02 08:45:00,
2013-08-02 19:00:00,70.4,64.3,29.97,SE,135,3.1,8.7,81,0.00,,BKN300,0.00,VWS V13.01,2013-08-02 09:00:00,
2013-08-02 19:15:00,70.0,64.3,29.97,SE,135,1.9,5.0,82,0.00,,BKN300,0.00,VWS V13.01,2013-08-02 09:15:00,
2013-08-02 19:30:00,69.6,64.2,29.98,SE,135,0.6,3.8,83,0.00,,BKN300,0.00,VWS V13.01,2013-08-02 09:30:00,
2013-08-02 19:45:00,68.9,63.9,29.98,SE,135,0.6,1.3,84,0.00,,BKN300,0.00,VWS V13.01,2013-08-02 09:45:00,
2013-08-02 20:00:00,68.2,63.9,29.98,SE,135,0.6,1.3,86,0.00,,BKN300,0.00,VWS V13.01,2013-08-02 10:00:00,
2013-08-02 20:15:00,67.8,63.8,29.98,SE,135,0.6,1.3,87,0.00,,BKN300,0.00,VWS V13.01,2013-08-02 10:15:00,
2013-08-02 20:30:00,67.4,63.7,29.99,SE,135,0.6,1.3,88,0.00,,BKN300,0.00,VWS V13.01,2013-08-02 10:30:00,
2013-08-02 20:45:00,67.4,63.7,30.00,SE,135,0.6,2.5,88,0.00,,BKN300,0.00,VWS V13.01,2013-08-02 10:45:00,
2013-08-02 21:00:00,67.2,63.5,30.00,SE,135,0.6,1.3,88,0.00,,BKN300,0.00,VWS V13.01,2013-08-02 11:00:00,
2013-08-02 21:15:00,66.7,63.4,30.00,SE,135,0.6,1.3,89,0.00,,BKN300,0.00,VWS V13.01,2013-08-02 11:15:00,
2013-08-02 21:30:00,66.1,63.1,30.00,SSE,158,0.6,1.3,90,0.00,,BKN300,0.00,VWS V13.01,2013-08-02 11:30:00,
2013-08-02 21:45:00,65.8,62.8,30.01,SSE,158,0.6,1.3,90,0.00,,BKN300,0.00,VWS V13.01,2013-08-02 11:45:00,
2013-08-02 22:00:00,65.4,62.7,30.01,SSE,158,0.6,1.3,91,0.00,,BKN300,0.00,VWS V13.01,2013-08-02 12:00:00,
2013-08-02 22:15:00,65.1,62.4,30.01,South,180,1.9,2.5,91,0.00,,BKN300,0.00,VWS V13.01,2013-08-02 12:15:00,
2013-08-02 22:30:00,65.1,62.4,30.01,South,180,0.6,2.5,91,0.00,,BKN300,0.00,VWS V13.01,2013-08-02 12:30:00,
2013-08-02 22:45:00,64.8,62.1,30.01,South,180,0.6,1.3,91,0.00,,BKN300,0.00,VWS V13.01,2013-08-02 12:45:00,
2013-08-02 23:00:00,64.4,62.0,30.01,South,180,0.6,0.0,92,0.00,,BKN300,0.00,VWS V13.01,2013-08-02 13:00:00,
2013-08-02 23:15:00,64.0,61.6,30.01,South,180,0.6,1.3,92,0.00,,BKN300,0.00,VWS V13.01,2013-08-02 13:15:00,
2013-08-02 23:30:00,63.8,61.4,30.00,South,180,0.6,1.3,92,0.00,,BKN300,0.00,VWS V13.01,2013-08-02 13:30:00,
2013-08-02 23:45:00,63.6,61.5,30.00,South,180,0.6,0.0,93,0.00,,BKN300,0.00,VWS V13.01,2013-08-02 13:45:00,